Погода в Пурнеме

Россия / Архангельская область     64°22′52″N   37°25′55″E
темп.,
°C
ветер,
м/с
пор.,
м/с
влажн.,
%
обл.,
%
осадки,
мм/ч
давл.,
гПа
погр.,
м
20 сентября, пн
пн2000:00+3ссв258460 0.0 1035112
03:00+3св228599 0.0 103649
06:00+4св2674100 0.0 1036203
09:00+5всв2670100 0.0 1037637
12:00+6в2365100 0.0 1037675
15:00+7всв2364100 0.0 1036843
18:00+6всв2569100 0.0 1034223
21:00+5вюв267087 0.0 1034214
21 сентября, вт
вт2100:00+4юв226868 0.0 103455
03:00+2в228217 0.0 103339
06:000в21905 0.0 103221
09:00+4вюв237121 0.0 1031299
12:00+7юв24585 0.0 1030774
15:00+8юв245322 0.0 1028834
18:00+5в11695 0.0 102710
21:00+3вюв228459 0.0 102819
22 сентября, ср
ср2200:00+2в229111 0.0 102818
03:00+1в11923 0.0 102814
06:00+1в11930 0.0 102816
09:00+5юв23770 0.0 1028223
12:00+8ююв24630 0.0 1028495
15:00+9ююв24580 0.0 1026469
18:00+5юв11740 0.0 102511
21:00+4юв22850 0.0 102527
23 сентября, чт
чт2300:00+3ююв23910 0.0 102560
03:00+3ююв26920 0.0 1023110
06:00+2ююв26930 0.0 1022114
09:00+6ююв49810 0.0 1021352
12:00+9ююв496911 0.0 1019538
15:00+10ююв4106998 0.0 1017739
18:00+9ююв41178100 0.0 1016769
21:00+7ююв51187100 0.1 1015709
24 сентября, пт
пт2400:00+7ююв5993100 0.1 1014600
03:00+7ююв5995100 0.3 1013480
06:00+7ююв51193100 0.2 1012706
09:00+7ююв51191100 0.3 1011603
12:00+8ююв61282100 0.0 1011628
15:00+9юв51186100 0.0 1010720
18:00+8юв41093100 0.1 1009643
21:00+8юв41098100 0.6 1008700